GW0392 Weather Reports


Display with metric or nautical units.
time (UTC)temp
F
wind
direction
speed
MPH
gust
MPH
rain 1hr
in
rain 24hr
in
rain mn
in
humidity
%
barometer
mb
20260903005148 82 221 0.0 0.0 0.00 0.00 0.00 78 1016.8
20260903004643 83 221 0.0 0.0 0.00 0.00 0.00 78 1016.8
20260903004138 83 221 0.0 0.0 0.00 0.00 0.00 77 1016.4
20260903003634 83 221 0.0 0.0 0.00 0.00 0.00 77 1016.6
20260903003129 83 225 0.0 0.0 0.00 0.00 0.00 76 1016.5
20260903002624 84 225 0.0 0.0 0.00 0.00 0.00 75 1016.6
20260903002118 84 225 0.0 0.0 0.00 0.00 0.00 74 1016.5
20260903001613 84 225 0.0 0.0 0.00 0.00 0.00 73 1016.4
20260903001112 85 226 0.0 0.0 0.00 0.00 0.00 71 1016.4
20260903000608 85 225 0.0 0.0 0.00 0.00 0.00 72 1016.3
20260902235601 87 222 0.0 1.0 0.00 0.00 0.00 69 1016.4
20260902235056 87 222 0.0 0.0 0.00 0.00 0.00 68 1016.3
20260902234550 88 225 0.0 0.0 0.00 0.00 0.00 67 1016.3
20260902234049 88 223 0.0 0.0 0.00 0.00 0.00 66 1016.1
20260902233544 89 223 0.0 0.0 0.00 0.00 0.00 64 1016.3
20260902233038 89 226 0.0 0.0 0.00 0.00 0.00 64 1016.3
20260902232537 90 228 0.0 0.0 0.00 0.00 0.00 64 1016.3
20260902232032 91 223 0.0 0.0 0.00 0.00 0.00 62 1016.5
20260902231526 91 224 0.0 0.0 0.00 0.00 0.00 61 1016.4
20260902231021 92 224 0.0 0.0 0.00 0.00 0.00 60 1016.2
20260902230520 92 225 0.0 0.0 0.00 0.00 0.00 59 1016.2
20260902230015 93 224 0.0 0.0 0.00 0.00 0.00 58 1016.1
20260902225510 93 225 0.0 0.0 0.00 0.00 0.00 57 1016.3
20260902225010 93 223 0.0 0.0 0.00 0.00 0.00 55 1016.3
20260902224509 94 225 0.0 1.0 0.00 0.00 0.00 55 1016.5
20260902224005 94 241 1.0 2.0 0.00 0.00 0.00 55 1016.3
20260902223501 94 226 0.0 0.0 0.00 0.00 0.00 54 1016.4
20260902223000 95 226 0.0 0.0 0.00 0.00 0.00 54 1016.2
20260902222458 95 226 0.0 0.0 0.00 0.00 0.00 53 1016.5
20260902221952 95 226 0.0 0.0 0.00 0.00 0.00 50 1016.4
20260902221452 95 223 0.0 0.0 0.00 0.00 0.00 50 1016.3
20260902220947 95 227 0.0 0.0 0.00 0.00 0.00 49 1016.3
20260902220441 95 222 0.0 0.0 0.00 0.00 0.00 49 1016.4
20260902215936 95 224 1.0 1.0 0.00 0.00 0.00 50 1016.4
20260902215432 95 226 0.0 1.0 0.00 0.00 0.00 49 1016.6
20260902214928 96 226 0.0 1.0 0.00 0.00 0.00 48 1016.5
20260902214426 96 228 0.0 0.0 0.00 0.00 0.00 48 1016.5
20260902213921 96 235 0.0 1.0 0.00 0.00 0.00 48 1016.5
20260902213417 96 226 0.0 1.0 0.00 0.00 0.00 47 1016.4
20260902212916 96 227 0.0 0.0 0.00 0.00 0.00 47 1016.5
20260902212412 96 228 0.0 1.0 0.00 0.00 0.00 47 1016.6
20260902211908 96 225 0.0 0.0 0.00 0.00 0.00 47 1016.7
20260902211403 97 223 0.0 0.0 0.00 0.00 0.00 47 1016.5
20260902210853 97 215 1.0 2.0 0.00 0.00 0.00 46 1016.6
20260902210352 96 218 0.0 1.0 0.00 0.00 0.00 47 1016.7
20260902205850 97 233 1.0 2.0 0.00 0.00 0.00 48 1016.7
20260902205340 96 221 0.0 1.0 0.00 0.00 0.00 46 1016.7
20260902204835 96 246 2.0 2.0 0.00 0.00 0.00 45 1016.6
20260902204330 96 226 1.0 1.0 0.00 0.00 0.00 46 1016.8
20260902203826 97 229 1.0 1.0 0.00 0.00 0.00 47 1016.7
20260902203321 96 218 1.0 5.0 0.00 0.00 0.00 48 1016.8
20260902202820 96 228 0.0 0.0 0.00 0.00 0.00 47 1017.1
20260902202317 97 236 0.0 0.0 0.00 0.00 0.00 48 1017.1
20260902201813 97 267 2.0 2.0 0.00 0.00 0.00 47 1016.9
20260902201312 97 227 0.0 0.0 0.00 0.00 0.00 46 1017.0
20260902200808 97 202 1.0 2.0 0.00 0.00 0.00 46 1017.1
20260902200302 96 220 0.0 1.0 0.00 0.00 0.00 47 1017.0
20260902195758 97 211 0.0 1.0 0.00 0.00 0.00 47 1017.1
20260902195257 97 188 1.0 2.0 0.00 0.00 0.00 49 1017.1
20260902194753 98 264 2.0 2.0 0.00 0.00 0.00 47 1017.3
20260902194247 97 226 0.0 1.0 0.00 0.00 0.00 49 1017.3
20260902193743 98 238 0.0 0.0 0.00 0.00 0.00 48 1017.4
20260902193238 97 226 1.0 1.0 0.00 0.00 0.00 49 1017.5
20260902192737 97 229 1.0 1.0 0.00 0.00 0.00 48 1017.7
20260902192236 96 243 0.0 1.0 0.00 0.00 0.00 49 1017.5
20260902191731 96 226 0.0 1.0 0.00 0.00 0.00 50 1017.7
20260902191226 96 227 1.0 1.0 0.00 0.00 0.00 49 1018.0
20260902190721 96 234 1.0 1.0 0.00 0.00 0.00 49 1017.8
20260902190221 96 228 0.0 2.0 0.00 0.00 0.00 51 1018.1
20260902185717 96 227 1.0 1.0 0.00 0.00 0.00 51 1018.1
20260902185212 96 238 1.0 2.0 0.00 0.00 0.00 52 1018.2
20260902184712 97 220 0.0 2.0 0.00 0.00 0.00 50 1018.2
20260902184208 98 243 0.0 1.0 0.00 0.00 0.00 50 1018.2
20260902183704 98 217 1.0 2.0 0.00 0.00 0.00 49 1018.2
20260902183200 97 230 0.0 1.0 0.00 0.00 0.00 51 1018.2
20260902182656 97 228 1.0 1.0 0.00 0.00 0.00 52 1018.4
20260902182152 96 229 1.0 2.0 0.00 0.00 0.00 52 1018.4
20260902181648 96 219 0.0 0.0 0.00 0.00 0.00 53 1018.4
20260902181147 96 229 0.0 0.0 0.00 0.00 0.00 55 1018.6
20260902180642 97 241 0.0 0.0 0.00 0.00 0.00 53 1018.4
20260902180138 97 239 1.0 1.0 0.00 0.00 0.00 53 1018.5
20260902175638 97 222 0.0 1.0 0.00 0.00 0.00 54 1018.8
20260902175133 96 219 1.0 1.0 0.00 0.00 0.00 54 1018.8
20260902174630 96 230 0.0 1.0 0.00 0.00 0.00 56 1019.0
20260902174125 96 223 1.0 1.0 0.00 0.00 0.00 55 1018.9
20260902173620 94 228 0.0 1.0 0.00 0.00 0.00 57 1019.2
20260902173115 94 222 0.0 1.0 0.00 0.00 0.00 59 1019.2
20260902172609 95 238 1.0 1.0 0.00 0.00 0.00 57 1019.2
20260902172103 95 231 1.0 1.0 0.00 0.00 0.00 58 1019.4
20260902171559 93 220 0.0 1.0 0.00 0.00 0.00 58 1019.4
20260902171055 93 224 1.0 1.0 0.00 0.00 0.00 59 1019.3
20260902170550 94 226 0.0 2.0 0.00 0.00 0.00 58 1019.4
20260902170046 93 225 0.0 1.0 0.00 0.00 0.00 58 1019.7
20260902165545 94 235 1.0 2.0 0.00 0.00 0.00 58 1019.6
20260902165040 93 212 0.0 1.0 0.00 0.00 0.00 61 1019.6
20260902164535 92 226 1.0 2.0 0.00 0.00 0.00 60 1019.6
20260902164033 93 223 0.0 1.0 0.00 0.00 0.00 59 1020.0
20260902163530 92 221 0.0 1.0 0.00 0.00 0.00 60 1020.1
20260902163028 92 215 0.0 1.0 0.00 0.00 0.00 62 1019.9
20260902162527 92 224 0.0 0.0 0.00 0.00 0.00 63 1020.0
20260902162023 92 225 0.0 0.0 0.00 0.00 0.00 66 1020.0
20260902161518 91 226 0.0 0.0 0.00 0.00 0.00 65 1020.2
20260902161014 90 236 1.0 2.0 0.00 0.00 0.00 65 1020.2
20260902160509 91 229 0.0 1.0 0.00 0.00 0.00 62 1020.3
20260902160010 91 222 0.0 1.0 0.00 0.00 0.00 65 1020.3
20260902155502 90 237 1.0 1.0 0.00 0.00 0.00 65 1020.4
20260902155001 90 225 0.0 0.0 0.00 0.00 0.00 67 1020.3
20260902154456 90 222 1.0 2.0 0.00 0.00 0.00 66 1020.3
20260902153952 89 213 2.0 2.0 0.00 0.00 0.00 68 1020.4
20260902153450 89 214 1.0 2.0 0.00 0.00 0.00 69 1020.7
20260902152945 89 217 1.0 1.0 0.00 0.00 0.00 68 1020.4
20260902152442 88 214 0.0 1.0 0.00 0.00 0.00 70 1020.6
20260902151937 88 201 1.0 1.0 0.00 0.00 0.00 72 1020.6
20260902151433 88 217 0.0 0.0 0.00 0.00 0.00 71 1020.5
20260902150926 87 216 0.0 1.0 0.00 0.00 0.00 72 1020.5
20260902150423 87 218 0.0 2.0 0.00 0.00 0.00 73 1020.4
20260902145922 86 217 0.0 0.0 0.00 0.00 0.00 72 1020.5
20260902145418 86 219 1.0 1.0 0.00 0.00 0.00 74 1020.5
20260902144913 85 217 1.0 1.0 0.00 0.00 0.00 74 1020.5
20260902144409 85 221 0.0 0.0 0.00 0.00 0.00 76 1020.6
20260902143903 85 218 0.0 0.0 0.00 0.00 0.00 76 1020.5
20260902143358 84 224 0.0 0.0 0.00 0.00 0.00 77 1020.4
20260902142853 83 220 0.0 1.0 0.00 0.00 0.00 78 1020.3
20260902142349 83 216 0.0 1.0 0.00 0.00 0.00 80 1020.5
20260902141844 83 217 0.0 1.0 0.00 0.00 0.00 79 1020.6
20260902141340 83 211 0.0 0.0 0.00 0.00 0.00 81 1020.4
20260902140839 82 225 0.0 0.0 0.00 0.00 0.00 82 1020.6
20260902140334 83 223 0.0 0.0 0.00 0.00 0.00 81 1020.4
20260902135833 82 228 0.0 0.0 0.00 0.00 0.00 82 1020.5
20260902135330 80 227 0.0 0.0 0.00 0.00 0.00 85 1020.5
20260902134828 80 227 0.0 0.0 0.00 0.00 0.00 87 1020.4
20260902134324 79 225 0.0 0.0 0.00 0.00 0.00 88 1020.9
20260902133820 78 229 0.0 0.0 0.00 0.00 0.00 89 1020.6
20260902133319 77 225 0.0 0.0 0.00 0.00 0.00 91 1020.6
20260902132815 77 226 0.0 0.0 0.00 0.00 0.00 91 1020.5
20260902132310 76 224 0.0 0.0 0.00 0.00 0.00 92 1020.5
20260902131805 76 229 0.0 0.0 0.00 0.00 0.00 93 1020.8
20260902131302 75 227 0.0 0.0 0.00 0.00 0.00 94 1020.7
20260902130801 75 226 0.0 0.0 0.00 0.00 0.00 95 1020.7
20260902130257 74 225 0.0 0.0 0.00 0.00 0.00 96 1020.3
20260902125752 74 222 0.0 0.0 0.00 0.00 0.00 97 1020.5
20260902125248 73 223 0.0 0.0 0.00 0.00 0.00 98 1020.4
20260902124744 73 222 0.0 0.0 0.00 0.00 0.00 98 1020.4
20260902124239 73 223 0.0 0.0 0.00 0.00 0.00 99 1020.3
20260902123729 72 225 0.0 0.0 0.00 0.00 0.00 99 1020.3
20260902123225 72 221 0.0 0.0 0.00 0.00 0.00 99 1020.4
20260902122724 72 221 0.0 0.0 0.00 0.00 0.00 99 1020.3
20260902122220 72 221 0.0 0.0 0.00 0.00 0.00 99 1020.3
20260902121720 72 221 0.0 0.0 0.00 0.00 0.00 99 1020.3
20260902121215 72 222 0.0 0.0 0.00 0.00 0.00 99 1020.2
20260902120710 71 221 0.0 0.0 0.00 0.00 0.00 99 1020.3
20260902120207 71 220 0.0 0.0 0.00 0.00 0.00 99 1020.0
20260902115706 71 220 0.0 0.0 0.00 0.00 0.00 99 1020.1
20260902115202 71 220 0.0 0.0 0.00 0.00 0.00 99 1019.9
20260902114658 71 220 0.0 0.0 0.00 0.00 0.00 99 1019.9
20260902114153 71 220 0.0 0.0 0.00 0.00 0.00 99 1019.8
20260902113649 71 220 0.0 0.0 0.00 0.00 0.00 99 1019.7
20260902113144 71 220 0.0 0.0 0.00 0.00 0.00 99 1019.6
20260902112644 71 220 0.0 0.0 0.00 0.00 0.00 99 1019.6
20260902112141 71 220 0.0 0.0 0.00 0.00 0.00 99 1019.7
20260902111636 71 220 0.0 0.0 0.00 0.00 0.00 99 1019.6
20260902111132 71 220 0.0 0.0 0.00 0.00 0.00 99 1019.3
20260902110627 71 220 0.0 0.0 0.00 0.00 0.00 99 1019.5
20260902110124 71 220 0.0 0.0 0.00 0.00 0.00 99 1019.7
20260902105623 71 220 0.0 0.0 0.00 0.00 0.00 99 1019.5
20260902105118 71 220 0.0 0.0 0.00 0.00 0.00 99 1019.5
20260902104613 71 220 0.0 0.0 0.00 0.00 0.00 99 1019.6
20260902104109 71 220 0.0 0.0 0.00 0.00 0.00 99 1019.6
20260902103608 71 220 0.0 0.0 0.00 0.00 0.00 99 1019.5
20260902103104 71 220 0.0 0.0 0.00 0.00 0.00 99 1019.4
20260902102555 71 220 0.0 0.0 0.00 0.00 0.00 99 1019.3
20260902102051 71 220 0.0 0.0 0.00 0.00 0.00 99 1019.2
20260902101547 71 220 0.0 0.0 0.00 0.00 0.00 99 1019.5
20260902101045 71 220 0.0 0.0 0.00 0.00 0.00 99 1019.3
20260902100545 71 220 0.0 0.0 0.00 0.00 0.00 99 1019.4
20260902100040 71 220 0.0 0.0 0.00 0.00 0.00 99 1019.3
20260902095540 71 220 0.0 0.0 0.00 0.00 0.00 99 1019.2
20260902095038 71 220 0.0 0.0 0.00 0.00 0.00 99 1019.2
20260902094534 71 220 0.0 0.0 0.00 0.00 0.00 99 1019.2
20260902094030 71 220 0.0 0.0 0.00 0.00 0.00 99 1019.1
20260902093525 71 220 0.0 0.0 0.00 0.00 0.00 99 1019.1
20260902093025 71 220 0.0 0.0 0.00 0.00 0.00 99 1019.2
20260902092520 71 220 0.0 0.0 0.00 0.00 0.00 99 1019.0
20260902092014 71 220 0.0 0.0 0.00 0.00 0.00 99 1018.8
20260902091510 71 220 0.0 0.0 0.00 0.00 0.00 99 1019.1
20260902091006 71 220 0.0 0.0 0.00 0.00 0.00 99 1019.2
20260902090502 72 220 0.0 0.0 0.00 0.00 0.00 99 1019.0
20260902090000 72 220 0.0 0.0 0.00 0.00 0.00 99 1019.0
20260902085455 72 220 0.0 0.0 0.00 0.00 0.00 99 1019.0
20260902084950 72 220 0.0 0.0 0.00 0.00 0.00 99 1019.0
20260902084447 72 220 0.0 0.0 0.00 0.00 0.00 99 1018.8
20260902083942 72 220 0.0 0.0 0.00 0.00 0.00 98 1018.6
20260902083442 72 220 0.0 0.0 0.00 0.00 0.00 98 1018.7
20260902082937 72 221 0.0 0.0 0.00 0.00 0.00 98 1018.5
20260902082433 72 220 0.0 0.0 0.00 0.00 0.00 98 1018.6
20260902081929 72 220 0.0 0.0 0.00 0.00 0.00 98 1018.4
20260902081425 72 221 0.0 0.0 0.00 0.00 0.00 98 1018.7
20260902080920 72 220 0.0 0.0 0.00 0.00 0.00 98 1018.5
20260902080416 72 220 0.0 0.0 0.00 0.00 0.00 98 1018.5
20260902075915 72 221 0.0 0.0 0.00 0.00 0.00 98 1018.4
20260902075412 72 220 0.0 0.0 0.00 0.00 0.00 98 1018.4
20260902074907 72 221 0.0 0.0 0.00 0.00 0.00 98 1018.3
20260902074403 72 221 0.0 0.0 0.00 0.00 0.00 98 1018.2
20260902073857 72 220 0.0 0.0 0.00 0.00 0.00 98 1018.3
20260902073354 72 220 0.0 0.0 0.00 0.00 0.00 98 1018.3
20260902072849 72 220 0.0 0.0 0.00 0.00 0.00 98 1018.4
20260902072345 72 220 0.0 0.0 0.00 0.00 0.00 98 1018.3
20260902071841 72 220 0.0 0.0 0.00 0.00 0.00 98 1018.5
20260902071340 72 220 0.0 0.0 0.00 0.00 0.00 98 1018.5
20260902070837 73 220 0.0 0.0 0.00 0.00 0.00 98 1018.5
20260902070332 73 220 0.0 0.0 0.00 0.00 0.00 98 1018.4
20260902065830 73 220 0.0 0.0 0.00 0.00 0.00 98 1018.6
20260902065326 73 220 0.0 0.0 0.00 0.00 0.00 97 1018.8
20260902064821 73 222 0.0 0.0 0.00 0.00 0.00 97 1018.6
20260902064317 73 222 0.0 0.0 0.00 0.00 0.00 97 1018.6
20260902063812 73 223 0.0 0.0 0.00 0.00 0.00 97 1018.7
20260902063307 73 223 0.0 0.0 0.00 0.00 0.00 97 1018.6
20260902062801 73 224 0.0 0.0 0.00 0.00 0.00 97 1018.7
20260902062256 73 225 0.0 0.0 0.00 0.00 0.00 97 1018.6
20260902061755 73 220 0.0 0.0 0.00 0.00 0.00 97 1018.6
20260902061250 73 220 0.0 0.0 0.00 0.00 0.00 97 1018.5
20260902060747 73 220 0.0 0.0 0.00 0.00 0.00 97 1018.5
20260902060237 73 220 0.0 0.0 0.00 0.00 0.00 97 1018.7
20260902055732 73 220 0.0 0.0 0.00 0.00 0.00 97 1018.7
20260902055229 73 220 0.0 0.0 0.00 0.00 0.00 96 1018.6
20260902054724 74 220 0.0 0.0 0.00 0.00 0.00 96 1018.7
20260902054219 74 221 0.0 0.0 0.00 0.00 0.00 96 1018.7
20260902053715 74 221 0.0 0.0 0.00 0.00 0.00 96 1018.5
20260902053214 74 221 0.0 0.0 0.00 0.00 0.00 96 1018.5
20260902052713 74 221 0.0 0.0 0.00 0.00 0.00 95 1018.7
20260902052209 74 221 0.0 0.0 0.00 0.00 0.00 95 1018.6
20260902051708 74 221 0.0 0.0 0.00 0.00 0.00 95 1018.7
20260902051203 74 221 0.0 0.0 0.00 0.00 0.00 95 1018.6
20260902050657 74 220 0.0 0.0 0.00 0.00 0.00 95 1018.6
20260902050153 74 220 0.0 0.0 0.00 0.00 0.00 95 1018.7
20260902045647 74 220 0.0 0.0 0.00 0.00 0.00 95 1018.7
20260902045144 74 220 0.0 0.0 0.00 0.00 0.00 95 1018.6
20260902044644 74 221 0.0 0.0 0.00 0.00 0.00 95 1018.5
20260902044140 74 221 0.0 0.0 0.00 0.00 0.00 94 1018.5
20260902043635 74 221 0.0 0.0 0.00 0.00 0.00 94 1018.5
20260902043130 74 221 0.0 0.0 0.00 0.00 0.00 94 1018.6
20260902042629 75 221 0.0 0.0 0.00 0.00 0.00 94 1018.5
20260902042125 75 221 0.0 0.0 0.00 0.00 0.00 94 1018.7
20260902041624 75 221 0.0 0.0 0.00 0.00 0.00 94 1018.6
20260902041119 75 221 0.0 0.0 0.00 0.00 0.00 93 1018.8
20260902040619 75 221 0.0 0.0 0.00 0.00 0.00 93 1018.6
20260902040114 75 221 0.0 0.0 0.00 0.00 0.00 93 1018.6
20260902035612 75 221 0.0 0.0 0.00 0.00 0.00 93 1018.7
20260902035108 75 221 0.0 0.0 0.00 0.00 0.00 93 1018.5
20260902034606 75 221 0.0 0.0 0.00 0.00 0.00 92 1018.7
20260902034101 75 221 0.0 0.0 0.00 0.00 0.00 92 1018.9
20260902033600 75 221 0.0 0.0 0.00 0.00 0.00 92 1018.7
20260902033055 75 221 0.0 0.0 0.00 0.00 0.00 92 1018.6
20260902032553 76 221 0.0 0.0 0.00 0.00 0.00 92 1018.7
20260902032043 76 221 0.0 0.0 0.00 0.00 0.00 92 1018.8
20260902031538 76 221 0.0 0.0 0.00 0.00 0.00 92 1018.9
20260902031034 76 221 0.0 0.0 0.00 0.00 0.00 92 1018.7
20260902030529 76 221 0.0 0.0 0.00 0.00 0.00 92 1018.5
20260902030028 77 221 0.0 0.0 0.00 0.00 0.00 91 1018.5
20260902025523 77 221 0.0 0.0 0.00 0.00 0.00 91 1018.7
20260902025018 77 221 0.0 0.0 0.00 0.00 0.00 91 1018.7
20260902024514 77 221 0.0 0.0 0.00 0.00 0.00 91 1018.7
20260902024014 77 222 0.0 0.0 0.00 0.00 0.00 90 1018.7
20260902023509 77 222 0.0 0.0 0.00 0.00 0.00 90 1018.6
20260902023004 77 222 0.0 0.0 0.00 0.00 0.00 90 1018.9
20260902022458 77 222 0.0 0.0 0.00 0.00 0.00 90 1018.7
20260902021954 78 222 0.0 0.0 0.00 0.00 0.00 90 1018.7
20260902021449 78 222 0.0 0.0 0.00 0.00 0.00 90 1018.7
20260902020944 78 221 0.0 0.0 0.00 0.00 0.00 89 1018.4
20260902020440 78 221 0.0 0.0 0.00 0.00 0.00 89 1018.5
20260902015936 78 222 0.0 0.0 0.00 0.00 0.00 89 1018.4
20260902015431 78 222 0.0 0.0 0.00 0.00 0.00 89 1018.3
20260902014926 79 222 0.0 0.0 0.00 0.00 0.00 89 1018.3
20260902014423 79 222 0.0 0.0 0.00 0.00 0.00 89 1018.3
20260902013922 79 222 0.0 0.0 0.00 0.00 0.00 88 1018.3
20260902013418 79 222 0.0 0.0 0.00 0.00 0.00 88 1018.1
20260902012913 79 222 0.0 0.0 0.00 0.00 0.00 88 1018.0
20260902012409 80 222 0.0 0.0 0.00 0.00 0.00 87 1018.0
20260902011904 80 222 0.0 0.0 0.00 0.00 0.00 86 1017.9
20260902011359 80 222 0.0 0.0 0.00 0.00 0.00 86 1018.0
20260902010859 80 222 0.0 0.0 0.00 0.00 0.00 86 1018.1
20260902010353 80 221 0.0 0.0 0.00 0.00 0.00 86 1018.0
20260902005853 81 222 0.0 0.0 0.00 0.00 0.00 85 1017.9